Flag for Germany Weather past 2 weeks in Cuxhaven, Lower Saxony, Germany

Now
41 °F

Partly sunny.


Feels Like: 34 °F
Forecast: 39 / 47 °F
Wind: 12 mph from West

Location: Nordholz

Current Time: Mar 6, 2015 at 8:43:22 AM

Latest Report: Mar 6, 2015 at 7:20 AM


Visibility: N/A

Pressure: 30.48 "Hg

Humidity: 87%

Dew point: 37 °F

Location of CuxhavenLocation

Historic Weather in Cuxhaven — Graph

°F

Cuxhaven temperature yesterday

Maximum temperature yesterday: 45 °F (at 1:20 PM)
Minimum temperature yesterday: 37 °F (at 1:20 AM)
Average temperature yesterday: 41 °F

Past Weeks' High & Low Weather Summary

 TemperatureHumidityPressure
High46 °F (Feb 26, 1:20 PM)100% (Feb 20, 9:20 PM)30.54 "Hg (Feb 20, 9:20 PM)
Low30 °F (Feb 28, 5:20 AM)57% (Feb 28, 4:20 PM)29.24 "Hg (Feb 21, 8:20 AM)
Average39 °F85%29.79 "Hg
* Reported Feb 19 7:20 AM — Mar 6 7:20 AM, Cuxhaven, Weather by CustomWeather, © 2015

Note: Actual official high and low records may vary slightly from our data, if they occured in-between our weather recording intervals... More about our weather records

Advertising

Cuxhaven weather history for previous 24 hours

 ConditionsComfort  
Time TempWeatherWind HumidityBarometerVisibility
7:20 AM
Fri, Mar 6
41 °FPartly sunny.12 mph87%30.48 "HgN/A
6:20 AM41 °FPassing clouds.10 mph87%30.48 "HgN/A
5:20 AM41 °FPassing clouds.12 mph87%30.48 "HgN/A
4:20 AM41 °FPassing clouds.10 mph87%30.48 "HgN/A
3:20 AM41 °FPassing clouds.10 mph87%30.48 "HgN/A
2:20 AM41 °FOvercast.9 mph87%30.51 "HgN/A
1:20 AM41 °FOvercast.10 mph87%30.51 "HgN/A
12:20 AM41 °FLight rain. Mostly cloudy.12 mph87%30.51 "HgN/A
11:20 PM
Thu, Mar 5
41 °FOvercast.10 mph87%30.51 "HgN/A
10:20 PM41 °FPassing clouds.12 mph87%30.54 "HgN/A
9:20 PM41 °FPassing clouds.12 mph87%30.54 "HgN/A
8:20 PM39 °FPassing clouds.7 mph87%30.54 "HgN/A
7:20 PM43 °FPassing clouds.9 mph76%30.54 "HgN/A
6:20 PM43 °FPassing clouds.10 mph76%30.54 "HgN/A
5:20 PM43 °FBroken clouds.12 mph81%30.54 "HgN/A
4:20 PM43 °FPartly sunny.13 mph87%30.54 "HgN/A
3:20 PM43 °FPartly sunny.15 mph87%30.54 "HgN/A
2:20 PM43 °FPartly sunny.15 mph87%30.54 "HgN/A
1:20 PM45 °FPartly sunny.14 mph81%30.54 "HgN/A
12:20 PM43 °FPartly sunny.15 mph93%30.54 "HgN/A
11:20 AM41 °FPartly sunny.14 mph93%30.54 "HgN/A
10:20 AM41 °FLow clouds.15 mph93%30.54 "HgN/A
9:20 AM41 °FPartly sunny.12 mph93%30.51 "HgN/A
8:20 AM39 °FBroken clouds.9 mph93%30.51 "HgN/A
Weather by CustomWeather, © 2015

See weather overviewHow to use our weather pages